Location: Le Vaud
(46.4779°N, 6.2346°E)
Time: 09:15:39
(UTC+00:00)

Lacrosse 5 - Pass Details

Date: 18 February 2020
Orbit: 715 x 724 km, 57.0° (Epoch: 21 March)

Event Time Altitude Azimuth Distance (km) Brightness Sun altitude
Exits shadow 03:47:39 53° 37° (NE) 887 2.5 -29.3°
Drops below altitude 10° 03:52:29 10° 108° (ESE) 2,206 5.1 -28.5°
Sets 03:54:55 0° 113° (ESE) 3,126 5.9 -28.1°
